Naples, Italy

9:31 AM CEST on October 22, 2017 (GMT +0200)
Capodichino Mil

Weather History for LIRN - February, 2014

Change the Weather History Date:

Sunday, February 9, 2014

  Actual Average Record
Temperature  
Mean Temperature 53 °F -  
Max Temperature 58 °F 57 °F 62 °F (2001)
Min Temperature 48 °F 41 °F 30 °F (1999)
Degree Days  
Heating Degree Days 12    
Growing Degree Days 3 (Base 50)    
Moisture  
Dew Point 48 °F    
Average Humidity 77    
Maximum Humidity 94    
Minimum Humidity 53    
Precipitation  
Precipitation 0.79 in 0.12 in - ()
Sea Level Pressure  
Sea Level Pressure 29.84 in    
Wind  
Wind Speed 11 mph ()    
Max Wind Speed 28 mph    
Max Gust Speed 39 mph    
Visibility 7.1 miles    
Events Rain    
Averages and records for this station are not official NWS values.
T = Trace of Precipitation, MM = Missing Value Source: Averaged Metar Reports

Daily Weather History Graph

Daily Weather History Graph

Search for Another Location

Airport or City:

Trip Planner

Search our weather history database for the weather conditions in past years. The results will help you decide how hot, cold, wet, or windy it might be!

Date:

Astronomy

Feb. 09, 2014 Rise Set
Actual Time 7:04 AM CET 5:29 PM CET
Civil Twilight 6:36 AM CET 5:58 PM CET
Nautical Twilight 6:03 AM CET 6:30 PM CET
Astronomical Twilight 5:31 AM CET 7:02 PM CET
Moon 12:55 PM CET (2/9) 2:55 AM CET (2/9)
Length of Visible Light 11h 22m
Length of Day
10h 25m
Waxing Gibbous, 75% of the Moon is Illuminated
Feb 9
Waxing Gibbous
Feb 15
Full
Feb 22
Last Quarter
Mar 1
New
Mar 8
First Quarter

Hourly Weather History & Observations

Time (CET) Temp. Dew Point Humidity Pressure Visibility Wind Dir Wind Speed Gust Speed Precip Events Conditions
12:20 AM 55.4 °F 48.2 °F 77% 29.89 in 6.2 mi SW 5.8 mph - N/A   Partly Cloudy
12:50 AM 55.4 °F 48.2 °F 77% 29.89 in 6.2 mi SSW 8.1 mph - N/A   Scattered Clouds
1:00 AM 55 °F 49 °F 75% 29.89 in 19 mi SSW 6.9 mph - -   Partly Cloudy
1:20 AM 55.4 °F 48.2 °F 77% 29.89 in 6.2 mi SSW 6.9 mph - N/A   Scattered Clouds
1:50 AM 55.4 °F 48.2 °F 77% 29.89 in 6.2 mi SSW 9.2 mph - N/A   Scattered Clouds
2:20 AM 55.4 °F 50.0 °F 82% 29.86 in 6.2 mi SSW 8.1 mph - N/A   Scattered Clouds
2:50 AM 55.4 °F 50.0 °F 82% 29.86 in 6.2 mi SW 11.5 mph - N/A   Scattered Clouds
3:20 AM 55.4 °F 50.0 °F 82% 29.86 in 6.2 mi SW 11.5 mph 24.2 mph N/A   Scattered Clouds
3:50 AM 55.4 °F 48.2 °F 77% 29.83 in 6.2 mi SW 11.5 mph - N/A   Scattered Clouds
4:00 AM 56 °F 48 °F 66% 29.86 in 19 mi SW 10.4 mph - -   Partly Cloudy
4:20 AM 57.2 °F 48.2 °F 72% 29.83 in 6.2 mi SW 11.5 mph 23.0 mph N/A   Scattered Clouds
4:50 AM 57.2 °F 46.4 °F 67% 29.83 in 6.2 mi SSW 9.2 mph - N/A   Scattered Clouds
5:20 AM 57.2 °F 46.4 °F 67% 29.83 in 6.2 mi SSW 10.4 mph - N/A   Scattered Clouds
5:50 AM 57.2 °F 48.2 °F 72% 29.80 in 6.2 mi SSW 15.0 mph - N/A   Scattered Clouds
6:20 AM 57.2 °F 50.0 °F 77% 29.80 in 6.2 mi SSW 13.8 mph 26.5 mph N/A Rain Light Rain
6:50 AM 55.4 °F 51.8 °F 88% 29.80 in 4.3 mi SSW 13.8 mph 25.3 mph N/A Rain Rain
7:00 AM 56 °F 51 °F 79% 29.80 in 19 mi SSW 15.0 mph - - Rain Light Rain
7:20 AM 53.6 °F 50.0 °F 88% 29.77 in 3.1 mi South 16.1 mph 27.6 mph N/A Rain Rain
7:50 AM 55.4 °F 51.8 °F 88% 29.77 in 1.9 mi SSW 17.3 mph 32.2 mph N/A Rain Rain
8:20 AM 55.4 °F 51.8 °F 88% 29.77 in 4.3 mi South 15.0 mph - N/A Rain Light Rain
8:50 AM 55.4 °F 53.6 °F 94% 29.74 in 3.1 mi South 12.7 mph 24.2 mph N/A Rain Rain
9:20 AM 55.4 °F 53.6 °F 94% 29.74 in 2.5 mi SSW 15.0 mph 27.6 mph N/A Rain Rain
9:50 AM 55.4 °F 53.6 °F 94% 29.74 in 2.5 mi SW 18.4 mph 32.2 mph N/A Rain Rain
10:00 AM 55 °F 53 °F 88% 29.76 in 19 mi SSW 19.6 mph - - Rain Rain
10:20 AM 55.4 °F 53.6 °F 94% 29.74 in 2.5 mi SSW 18.4 mph 29.9 mph N/A Rain Rain
10:50 AM 55.4 °F 53.6 °F 94% 29.74 in 2.5 mi SW 18.4 mph - N/A Rain Rain
11:20 AM 57.2 °F 53.6 °F 88% 29.74 in 2.5 mi SW 18.4 mph 29.9 mph N/A Rain Rain
11:50 AM - - N/A% 0.00 in 5.0 mi SW 18.4 mph 33.4 mph N/A Rain Light Rain
12:20 PM 57.2 °F 50.0 °F 77% 29.74 in 5.0 mi WSW 27.6 mph 39.1 mph N/A Rain Light Rain
12:50 PM 57.2 °F 50.0 °F 77% 29.74 in 6.2 mi West 20.7 mph 36.8 mph N/A   Scattered Clouds
1:00 PM 58 °F 51 °F 70% 29.76 in 12 mi West 20.7 mph - -   Mostly Cloudy
1:20 PM 57.2 °F 48.2 °F 72% 29.74 in 6.2 mi West 25.3 mph - N/A   Scattered Clouds
1:50 PM 57.2 °F 46.4 °F 67% 29.74 in 6.2 mi West 27.6 mph - N/A   Scattered Clouds
2:20 PM 57.2 °F 46.4 °F 67% 29.74 in 6.2 mi West 24.2 mph 38.0 mph N/A   Scattered Clouds
2:50 PM 57.2 °F 46.4 °F 67% 29.77 in 6.2 mi West 19.6 mph 33.4 mph N/A   Mostly Cloudy
3:20 PM 57.2 °F 46.4 °F 67% 29.77 in 6.2 mi West 23.0 mph - N/A   Mostly Cloudy
3:50 PM 57.2 °F 44.6 °F 63% 29.80 in 6.2 mi West 18.4 mph - N/A   Scattered Clouds
4:00 PM 58 °F 45 °F 53% 29.81 in 12 mi West 20.7 mph - -   Partly Cloudy
4:20 PM 57.2 °F 44.6 °F 63% 29.80 in 6.2 mi West 19.6 mph - N/A   Scattered Clouds
4:50 PM 57.2 °F 44.6 °F 63% 29.83 in 6.2 mi West 19.6 mph - N/A   Scattered Clouds
5:20 PM 55.4 °F 44.6 °F 67% 29.83 in 6.2 mi West 10.4 mph - N/A   Scattered Clouds
5:50 PM 53.6 °F 44.6 °F 72% 29.86 in 6.2 mi West 4.6 mph - N/A   Partly Cloudy
6:20 PM 53.6 °F 44.6 °F 72% 29.86 in 6.2 mi SSW 5.8 mph - N/A   Partly Cloudy
6:50 PM 53.6 °F 44.6 °F 72% 29.89 in 6.2 mi SSW 5.8 mph - N/A   Partly Cloudy
7:00 PM 53 °F 45 °F 66% 29.91 in 12 mi SSW 6.9 mph - -   Scattered Clouds
7:20 PM 51.8 °F 44.6 °F 76% 29.92 in - WSW 8.1 mph - N/A   Clear
7:50 PM 53.6 °F 44.6 °F 72% 29.92 in - SW 6.9 mph - N/A   Clear
8:20 PM 53.6 °F 44.6 °F 72% 29.95 in - WSW 11.5 mph - N/A   Clear
8:50 PM 53.6 °F 46.4 °F 77% 29.95 in - WSW 11.5 mph - N/A   Clear
9:20 PM 53.6 °F 46.4 °F 77% 29.98 in - WSW 8.1 mph - N/A   Clear
9:50 PM 53.6 °F 46.4 °F 77% 29.95 in - West 10.4 mph - N/A   Clear
10:00 PM 52 °F 46 °F 71% 29.98 in 12 mi West 9.2 mph - -  
10:20 PM 51.8 °F 44.6 °F 76% 29.95 in - WSW 6.9 mph - N/A   Clear
10:50 PM 48.2 °F 42.8 °F 82% 29.95 in - WNW 4.6 mph - N/A   Clear
11:20 PM 48.2 °F 44.6 °F 87% 29.95 in - Variable 2.3 mph - N/A   Clear
11:50 PM 48.2 °F 44.6 °F 87% 29.95 in - SSW 2.3 mph - N/A   Clear